[Date Prev][Date Next][Thread Prev][Thread Next] - [Date Index][Thread Index][Author Index]
2 Line ISS Keps 5-2
- Subject: [sarex] 2 Line ISS Keps 5-2
- From: "Dr Dave Larsen [ PhD ]" <doc@xxxxxxxxxxx>
- Date: Wed, 2 May 2001 04:12:31 -0700
ISS
1 25544U 98067A 01122.13425926 .00047628 00000-0 60805-3 0 9278
2 25544 51.5723 320.7901 0017014 3.2567 141.3456 15.58613537139880
----
Via the sarex mailing list at AMSAT.ORG courtesy of AMSAT-NA.
To unsubscribe, send "unsubscribe sarex" to Majordomo@amsat.org
AMSAT Home